Location: Iesi
(43.5167°N, 13.2333°E)
Time: 17:08:53
(UTC+00:00)

Cosmos 2228 Rocket - Pass Details

Date: 08 August 2020
Orbit: 617 x 653 km, 82.5° (Epoch: 23 September)

Event Time Altitude Azimuth Distance (km) Brightness Sun altitude
Rises 19:11:49 0° 351° (N) 2,924 7.2 -9.1°
Reaches altitude 10° 19:14:04 10° 352° (N) 2,007 6.3 -9.5°
Maximum altitude 19:18:31 89° 68° (ENE) 628 3.1 -10.2°
Drops below altitude 10° 19:22:54 10° 173° (S) 1,977 5.3 -10.8°
Enters shadow 19:24:09 - 173° (S) 2,486 5.8 -11.0°
